GEFSSGP_850_meantemp_024.txt.gz
Temperature
23 23 23 23 28 30 30 31 31 31 31 29 28 28 29 29 28 26 22 21 21 20 19 20 19 19 19 19 19 19 19 19 19 19 19 19 19 18 18 18 18 18 18 18 18 18 18 18 18
22 23 23 26 28 29 30 31 30 30 29 28 27 27 28 28 25 22 21 20 20 20 19 19 19 19 19 19 19 19 19 19 20 19 19 19 19 18 18 18 18 18 18 18 18 18 18 18 18
22 22 25 28 28 28 30 31 31 30 28 28 29 28 28 26 23 22 21 20 20 20 19 19 20 19 19 19 19 19 19 19 19 19 19 19 19 18 18 18 18 18 18 18 18 18 18 18 18
22 23 26 27 28 29 30 30 30 30 29 28 29 28 27 24 23 22 21 21 20 20 19 20 20 19 19 19 19 19 19 19 19 19 19 19 18 18 18 18 18 18 18 18 18 18 18 18 18
22 26 27 27 28 30 30 30 29 30 30 29 28 29 27 23 22 22 21 21 21 20 19 19 19 19 19 19 19 19 19 19 19 19 19 18 18 18 18 18 18 17 17 17 17 17 17 18 18
24 26 27 27 28 30 30 29 29 29 30 29 29 29 27 23 22 21 21 21 21 20 19 19 19 19 19 18 19 19 19 19 19 18 18 18 18 18 18 17 17 17 17 17 17 17 17 18 18
25 27 27 28 28 29 30 29 29 30 30 30 29 29 27 24 22 21 21 20 20 20 19 19 19 19 18 18 18 18 18 18 18 18 18 18 18 18 18 17 17 17 17 17 17 17 17 18 18
24 27 27 28 28 28 30 29 29 29 30 29 29 30 28 24 22 21 21 20 20 20 19 18 18 18 18 18 18 18 18 18 18 18 18 18 18 18 17 17 17 17 17 17 17 17 17 18 18
23 25 27 28 28 29 29 29 29 28 29 29 28 29 27 24 22 21 21 20 20 19 19 18 18 18 18 17 18 18 18 18 18 18 18 18 17 17 17 16 17 17 17 17 17 17 17 18 18
23 25 27 28 29 29 29 29 29 29 29 29 28 27 25 24 23 22 22 21 20 19 19 19 18 18 18 18 17 17 17 18 18 17 17 17 17 17 17 16 17 17 17 17 17 17 17 17 17
24 26 27 27 27 27 28 29 28 29 30 30 29 28 25 24 24 23 23 22 21 20 19 19 18 18 18 18 18 17 17 17 17 17 17 17 17 17 16 16 16 16 17 16 16 17 17 17 17
25 26 26 27 27 27 28 28 29 29 30 30 29 28 25 25 25 24 23 23 22 21 20 19 19 18 18 18 18 17 17 17 17 17 17 17 17 17 16 16 16 16 16 16 16 16 16 16 17
25 25 25 25 26 27 27 28 28 29 29 28 28 28 26 26 26 25 24 23 22 21 20 20 19 18 18 18 17 17 17 17 17 17 17 17 17 17 16 16 16 16 16 16 16 16 16 16 16
25 25 25 26 26 27 28 29 29 29 29 28 28 27 27 27 26 25 24 23 22 21 20 20 19 19 19 19 18 17 17 17 17 17 17 17 17 16 16 16 16 16 16 16 16 16 16 16 16
25 25 26 26 27 28 28 29 30 29 29 28 28 28 27 27 26 25 25 24 23 21 21 20 20 20 20 19 19 18 17 17 17 17 16 16 16 16 16 16 16 16 16 16 16 15 16 16 16
24 25 25 27 28 28 28 29 31 29 29 29 29 28 27 27 26 26 25 24 23 22 21 21 20 20 21 20 19 18 18 17 17 17 16 16 16 16 16 16 16 16 16 16 16 16 16 16 15
25 25 26 27 28 28 28 30 30 29 29 29 29 29 28 27 26 25 25 24 23 22 21 20 20 20 20 20 19 18 18 17 17 16 16 16 16 16 16 16 16 16 16 16 16 16 16 15 15
25 26 26 27 28 28 28 29 30 29 29 30 29 29 28 27 26 25 24 24 22 21 21 20 20 20 19 19 19 18 17 17 16 16 16 16 16 16 16 16 16 16 15 15 15 15 15 15 14
25 26 26 27 27 27 28 28 29 30 29 30 29 29 28 27 27 26 24 23 22 21 20 20 19 19 19 18 18 17 17 16 16 16 16 16 15 15 15 15 15 15 15 15 14 14 14 14 13
24 24 25 26 26 26 27 28 29 29 29 28 28 27 27 26 26 25 24 23 22 21 20 20 19 19 19 18 17 17 16 16 16 16 15 15 15 14 14 14 14 14 14 14 14 13 13 13 12
23 24 25 25 26 26 26 27 28 29 28 27 26 25 25 24 24 24 24 23 22 21 20 19 19 18 18 17 17 16 16 16 15 15 14 14 14 13 13 13 13 13 13 13 13 12 12 12 11
23 24 25 25 25 26 26 27 29 28 28 27 26 24 23 22 22 23 23 22 22 21 20 19 18 18 17 17 17 16 16 16 15 15 14 14 13 13 12 12 12 12 12 12 12 11 11 11 10
24 25 24 24 24 25 25 26 28 28 27 26 24 22 20 19 20 20 21 21 21 21 20 19 18 17 17 17 16 16 16 16 15 15 14 13 12 12 12 12 12 11 11 11 11 11 10 10 9
25 24 24 24 25 24 25 26 27 28 26 25 22 19 17 17 18 18 18 18 18 18 18 18 17 17 16 16 16 15 15 15 15 14 13 12 12 12 11 11 11 10 10 10 10 10 9 8 8
24 23 23 23 23 24 26 25 27 24 22 21 20 18 16 15 16 16 16 16 16 16 16 16 16 16 15 15 15 15 14 14 14 13 13 12 11 11 10 10 10 10 10 10 9 8 7 7 6
23 23 23 23 24 25 25 25 25 22 20 18 17 16 15 14 14 14 14 15 15 15 15 15 15 15 15 14 14 14 13 13 13 12 12 11 11 10 9 9 9 9 9 8 8 7 6 6 6
24 24 25 24 24 25 26 25 23 21 19 18 17 15 14 14 13 14 14 14 14 14 14 14 14 14 14 14 13 13 13 12 12 11 11 10 9 9 9 8 8 8 7 7 6 6 6 6 6
25 25 24 23 23 23 25 25 25 22 19 18 16 15 13 13 13 13 13 13 13 13 13 14 14 13 13 13 12 12 12 11 11 10 10 9 9 8 8 8 7 7 6 6 6 6 5 5 5
23 24 24 24 24 24 24 25 23 22 19 17 15 13 12 12 12 12 12 13 13 13 13 13 13 12 12 12 12 12 11 11 10 10 9 8 8 8 7 7 6 6 6 6 5 5 5 4 4
24 24 24 23 23 24 24 23 20 20 18 15 13 12 12 12 12 12 12 12 12 12 12 12 12 12 11 11 11 11 10 10 9 9 8 8 7 7 6 6 6 5 5 5 4 4 4 3 3

GEFSSGP_850_meantemp_030.txt.gz
Temperature
25 25 25 26 28 29 30 33 33 33 32 31 31 31 31 30 28 25 25 25 23 23 22 22 22 21 20 20 19 19 19 19 19 19 19 19 19 19 18 18 18 18 18 18 18 18 18 18 18
25 25 26 28 28 29 30 33 33 33 32 32 32 31 31 29 28 26 25 24 22 22 22 22 21 21 20 20 19 19 19 19 19 19 18 18 18 18 18 18 18 18 18 18 18 18 18 18 18
25 25 26 29 29 29 30 33 33 33 32 32 32 32 30 29 27 25 24 23 22 21 21 21 21 21 20 20 19 19 19 19 19 19 18 18 18 18 18 18 18 18 18 18 18 18 18 18 18
24 26 27 28 28 31 32 33 34 33 33 32 32 31 29 28 27 25 24 23 22 21 21 21 21 21 20 20 19 19 19 19 19 18 18 18 18 18 18 18 18 18 18 18 18 18 18 18 18
24 26 27 28 29 31 33 33 33 33 33 32 32 31 28 27 26 24 24 24 22 21 21 21 21 20 20 20 19 19 19 19 19 18 18 18 18 18 18 18 18 17 17 18 18 18 18 18 18
26 27 27 27 29 31 33 33 33 33 33 32 31 31 28 26 25 24 24 24 23 21 21 22 21 20 20 20 19 19 19 19 18 18 18 18 18 18 18 18 17 17 17 17 18 18 18 18 18
26 27 27 28 29 31 33 33 34 33 33 31 31 31 28 26 25 25 24 24 23 22 21 22 21 20 20 19 19 19 19 18 18 18 18 18 18 18 18 18 18 17 17 18 18 18 18 18 18
26 27 27 28 29 30 32 33 33 33 33 31 30 31 28 26 25 25 25 25 24 22 21 22 21 21 20 19 19 19 18 18 18 18 18 18 18 18 18 18 18 18 18 18 18 18 18 18 18
26 27 27 28 29 31 33 33 33 33 32 31 30 29 27 26 25 25 25 25 24 22 21 21 20 20 20 19 19 19 18 18 18 18 18 18 18 18 18 18 18 17 18 18 18 18 18 18 19
27 26 27 29 31 32 33 33 33 33 32 30 29 28 27 26 26 25 25 25 24 23 21 20 20 19 19 19 19 19 19 19 18 18 18 18 18 17 17 17 17 17 18 18 18 18 18 18 18
27 27 29 30 31 31 32 33 33 33 32 31 29 28 27 26 26 26 26 25 24 23 22 21 20 20 20 19 19 19 18 18 18 17 18 18 17 17 17 17 17 17 17 17 17 18 18 18 18
28 28 29 29 30 31 31 32 32 32 32 31 31 30 28 27 27 27 27 26 25 24 23 22 21 20 20 20 19 19 18 18 18 18 18 18 17 17 17 17 17 17 17 17 17 17 18 18 18
28 28 29 29 30 30 31 31 31 32 32 31 31 31 29 28 28 27 27 26 25 24 23 23 22 21 21 20 20 19 19 19 18 18 18 18 17 17 17 17 17 17 17 17 17 17 17 18 18
29 29 29 29 29 30 30 30 31 31 31 31 31 30 29 29 29 28 28 27 26 24 23 23 22 21 21 20 20 20 19 19 19 18 18 18 18 18 18 17 17 17 17 17 17 17 17 17 17
28 29 29 29 29 29 30 29 31 31 32 32 31 30 30 30 29 28 28 27 26 25 24 23 22 21 21 20 20 19 19 19 19 18 18 18 18 18 18 18 17 17 17 17 17 17 17 17 17
28 27 27 29 29 29 29 28 31 32 32 32 32 31 30 30 29 28 28 27 26 25 24 23 22 21 20 20 19 19 19 19 19 19 19 18 18 18 18 18 17 17 17 17 17 16 16 16 16
26 26 27 28 30 30 29 29 32 32 32 32 32 31 31 30 30 29 28 27 26 25 24 23 22 21 20 19 19 19 19 19 19 19 19 18 18 18 18 18 17 17 16 16 16 16 16 16 16
26 26 27 28 30 30 29 30 31 32 32 32 32 32 31 30 30 30 29 27 26 25 24 23 22 21 20 19 19 18 18 18 18 19 19 18 18 18 18 17 17 16 16 16 15 15 15 15 15
27 28 28 29 31 30 29 30 31 32 32 32 32 31 31 30 30 29 29 28 26 25 24 22 21 20 19 19 18 18 18 18 18 18 18 18 18 17 17 16 16 16 15 15 15 15 14 14 14
26 26 28 30 31 30 30 30 31 32 32 32 32 31 30 29 29 28 28 27 26 24 23 22 21 20 19 18 18 18 18 18 18 18 18 17 17 16 16 15 15 15 15 15 14 14 14 13 13
26 26 27 29 30 30 29 29 30 31 32 32 31 30 29 28 27 27 27 26 26 24 23 22 21 20 19 18 18 17 17 17 17 17 17 16 16 15 15 15 14 14 14 13 13 13 13 13 13
25 27 27 28 28 28 28 26 28 30 31 31 31 29 27 26 25 25 25 25 25 24 23 22 21 20 19 18 18 18 17 17 17 16 16 15 15 15 14 14 13 13 13 13 12 12 12 12 12
26 27 27 27 27 27 28 27 28 30 30 30 29 26 23 22 21 21 21 22 23 23 23 22 21 19 19 18 18 17 17 16 16 15 15 14 14 14 13 13 13 12 12 12 12 12 11 11 11
26 26 27 27 26 25 26 26 27 29 30 29 25 21 20 19 18 18 19 19 20 21 21 21 20 19 18 18 17 17 16 16 15 14 14 13 13 13 12 12 12 12 12 12 11 11 11 11 11
26 25 24 24 24 24 27 26 27 27 26 24 21 18 17 16 16 16 17 17 18 19 19 19 19 18 17 17 16 16 16 15 14 14 13 12 12 12 12 11 11 11 11 11 11 10 10 10 10
25 25 23 23 24 25 27 26 27 25 22 20 18 17 16 15 15 15 15 15 16 16 17 17 17 16 16 16 15 15 15 14 13 13 12 12 11 11 11 11 11 10 10 10 10 9 9 9 8
25 25 26 25 25 25 27 27 24 23 21 20 18 16 15 14 14 14 14 14 15 15 15 15 15 15 15 15 14 14 14 13 13 12 11 11 11 10 10 10 10 10 9 9 8 8 8 8 7
26 26 25 24 23 23 26 26 24 22 20 19 17 15 14 13 13 13 13 14 14 14 14 14 14 14 14 14 13 13 12 12 12 11 11 10 10 9 9 9 9 9 8 8 7 7 7 7 7
25 25 24 25 25 24 24 24 24 23 20 18 16 14 13 12 13 13 13 13 13 13 13 13 13 13 13 12 12 12 11 11 11 10 10 9 9 9 9 8 8 8 7 7 7 7 6 6 6
26 25 24 23 23 24 24 22 23 21 19 17 14 13 12 12 12 12 12 12 12 12 12 12 12 12 12 11 11 11 10 10 10 9 9 8 8 8 8 7 7 7 7 6 6 6 6 5 5

GEFSSGP_850_meantemp_036.txt.gz
Temperature
24 24 25 25 21 19 21 23 26 26 26 27 27 27 26 25 24 22 22 22 22 22 21 20 21 21 20 20 20 20 20 20 20 20 20 19 19 19 19 19 19 19 19 19 19 18 18 18 18
24 24 25 24 20 20 21 24 26 26 27 28 27 26 25 24 23 22 21 22 22 22 21 20 20 20 20 20 20 20 20 20 19 19 19 19 19 19 19 19 19 19 18 18 18 18 18 18 18
24 24 24 20 20 20 22 24 26 28 29 28 27 27 25 23 22 22 22 22 22 22 21 20 20 20 20 20 20 20 19 19 19 19 19 19 19 19 19 19 19 18 18 18 18 18 18 18 18
24 24 23 19 21 21 23 25 26 27 29 28 27 25 25 24 24 23 22 22 22 21 21 20 20 20 20 20 20 20 20 19 19 19 19 19 19 19 18 18 18 18 18 18 18 18 18 18 18
23 23 20 19 20 22 24 26 27 27 28 27 26 24 24 24 24 23 22 22 22 21 21 20 20 20 20 20 20 20 20 19 19 19 19 19 18 18 18 18 19 19 18 18 18 18 18 18 18
22 20 19 19 21 23 25 27 27 27 27 26 25 23 22 23 23 22 22 22 22 21 21 20 20 20 20 20 20 20 20 19 19 19 19 19 19 18 19 19 19 19 18 18 18 18 18 18 18
21 17 18 20 21 22 25 27 27 27 26 26 25 22 22 22 23 22 22 22 22 22 21 20 20 20 20 20 20 20 20 19 19 19 19 19 19 19 19 19 19 19 19 18 18 18 18 18 18
21 17 19 20 21 22 25 26 27 27 26 26 26 23 22 22 22 22 21 22 22 21 21 21 20 20 20 20 20 20 19 19 19 19 19 19 19 19 19 19 19 19 19 18 18 18 18 18 18
21 17 17 20 21 22 25 25 27 27 27 26 26 26 25 23 22 21 21 21 21 21 21 21 20 20 20 20 20 20 19 19 19 19 19 19 19 19 19 19 19 18 18 18 18 18 19 18 18
20 16 18 21 22 23 24 25 26 26 25 25 25 26 25 24 23 21 21 21 21 21 21 21 21 20 20 20 20 20 19 19 19 19 19 19 19 18 18 18 18 18 18 18 18 18 19 18 18
19 18 20 22 24 25 24 25 27 25 24 24 24 25 25 24 23 22 21 22 22 22 21 21 21 21 20 20 20 20 19 19 19 19 19 19 19 18 18 18 18 18 18 18 18 18 18 18 18
20 20 22 23 25 25 25 26 26 26 26 27 27 27 25 24 23 23 22 22 22 22 22 21 21 21 20 20 20 20 20 19 19 19 19 19 19 19 19 18 18 18 18 18 18 18 18 18 18
20 20 23 24 25 25 25 25 26 27 27 27 26 26 25 24 24 24 23 22 22 22 22 22 21 21 21 20 20 20 20 20 20 19 19 19 19 19 18 18 18 18 18 18 18 17 18 18 18
20 21 22 24 24 25 24 25 25 27 27 26 25 25 25 24 24 24 23 22 22 22 22 22 21 21 21 20 20 20 20 20 19 19 19 19 19 19 18 18 18 17 17 17 17 17 17 17 17
23 21 20 22 23 24 25 24 24 27 27 26 25 25 25 25 24 24 23 23 23 23 23 22 21 21 21 21 20 20 20 19 19 19 19 19 19 18 18 18 17 17 17 17 17 17 17 16 17
21 20 20 21 22 24 24 22 24 27 26 26 25 25 25 25 25 24 23 23 23 23 23 22 21 21 21 20 20 20 19 19 19 19 19 19 18 18 18 17 17 17 17 17 17 17 16 16 16
19 19 20 21 23 23 23 22 24 27 27 26 26 25 24 24 24 24 24 24 23 23 23 22 21 21 21 20 20 19 19 19 19 19 18 18 18 18 17 17 17 17 17 16 16 16 16 16 16
18 20 20 21 22 23 22 22 24 26 26 26 25 25 24 23 24 24 24 24 24 23 23 22 21 21 20 20 19 19 19 19 19 18 18 18 18 18 17 17 17 16 16 16 16 16 15 15 15
20 20 19 21 22 22 22 23 24 25 25 25 24 24 23 23 23 24 24 24 24 23 22 22 21 21 20 20 20 19 19 18 18 18 18 18 17 17 17 17 16 16 16 16 15 15 15 15 15
20 19 20 21 22 23 21 22 23 24 24 24 24 23 22 22 23 24 24 24 24 23 22 22 21 21 21 20 20 20 19 18 18 18 18 17 17 17 16 16 16 15 15 15 15 15 14 14 14
20 19 20 21 22 22 22 22 22 24 23 22 21 21 21 22 22 23 24 24 24 23 23 22 21 21 21 20 20 19 19 18 17 17 17 17 16 16 16 16 15 15 14 14 14 14 14 13 13
19 21 21 22 21 19 21 20 21 22 21 19 18 18 18 19 20 22 22 23 23 23 22 22 21 21 21 20 20 19 19 18 17 17 16 16 16 15 15 15 14 14 14 13 13 13 13 13 12
20 22 22 22 21 20 20 20 20 21 19 17 16 16 16 17 18 19 20 21 21 22 22 21 21 21 20 20 19 19 18 17 17 16 15 15 15 14 14 14 14 13 13 13 12 12 12 12 12
22 22 21 19 18 19 20 21 20 19 19 17 16 15 15 16 16 17 18 19 20 20 20 20 20 20 19 19 18 18 18 17 16 15 15 14 14 14 13 13 13 12 12 12 12 11 11 11 11
21 18 17 18 17 18 20 21 18 17 18 16 15 15 14 15 15 16 17 17 18 19 19 19 19 18 18 17 17 17 17 16 15 15 14 14 13 13 12 12 12 11 11 11 11 10 10 10 10
20 18 17 18 18 18 20 19 17 16 15 15 14 14 14 14 14 15 15 16 16 17 17 17 17 17 17 16 16 16 16 15 14 14 13 13 12 12 12 11 11 11 10 10 10 10 9 9 9
20 18 17 17 19 19 18 17 17 16 15 14 14 13 13 13 13 14 14 14 15 15 16 16 16 16 16 15 15 15 14 14 13 13 12 12 11 11 10 10 10 10 9 9 9 9 9 8 8
20 19 16 16 17 18 19 18 17 16 15 14 13 13 12 13 13 13 13 13 14 14 14 15 15 15 15 14 14 13 13 13 12 12 11 11 10 10 9 9 9 9 8 8 8 8 8 7 7
19 18 17 15 16 17 17 17 16 16 15 14 13 12 12 12 12 12 12 12 13 13 13 13 13 13 13 13 13 12 12 11 11 11 10 10 9 9 8 8 8 8 7 7 7 7 7 6 6
18 17 16 16 16 16 16 15 15 14 14 13 12 11 11 11 12 12 12 12 12 12 12 12 12 12 12 12 11 11 10 10 10 9 9 8 8 8 8 7 7 7 7 7 6 6 6 6 5

GEFSSGP_850_meantemp_042.txt.gz
Temperature
23 23 24 23 20 18 20 21 23 23 24 25 25 25 23 23 22 22 22 22 21 21 20 20 20 20 20 20 21 21 21 20 20 20 20 20 19 19 19 19 19 19 19 19 19 19 19 19 19
23 24 24 23 19 19 20 21 23 23 25 25 25 24 23 22 22 22 22 21 21 21 20 20 20 20 20 20 20 21 20 20 20 20 20 19 19 19 19 19 19 19 19 19 19 19 19 18 18
23 23 24 19 18 19 22 22 23 24 26 25 25 24 23 22 22 22 22 21 21 20 20 20 20 20 20 20 20 20 20 20 20 20 20 19 19 19 19 19 19 19 18 18 18 18 18 18 18
23 23 22 18 20 19 21 22 23 23 25 26 25 23 22 22 23 23 22 21 21 20 20 20 20 20 20 20 20 20 20 20 20 20 19 19 19 19 19 19 19 18 18 18 18 18 18 18 18
22 23 19 18 19 20 21 23 24 23 24 25 24 22 22 22 22 22 22 21 21 20 20 20 20 20 20 20 20 20 20 20 20 19 19 19 19 19 19 19 19 18 18 18 18 18 18 18 18
22 19 18 17 19 20 22 24 24 24 24 24 23 21 21 22 22 22 22 21 21 21 20 20 19 20 20 20 20 20 20 19 19 19 19 19 19 19 19 19 18 18 18 18 18 18 18 18 18
20 16 17 18 19 20 22 24 24 24 23 24 23 21 20 21 22 22 22 21 21 20 20 19 19 19 19 20 20 20 19 19 19 19 19 19 19 19 19 18 18 18 18 18 18 18 18 18 18
20 15 17 17 19 20 22 24 24 24 24 24 24 21 20 21 21 21 21 21 20 20 20 19 19 19 19 19 19 19 19 19 19 19 19 19 19 19 18 18 18 18 17 17 17 18 18 18 17
19 14 15 17 18 20 22 23 24 25 25 24 24 24 23 22 21 21 21 20 20 19 19 19 19 19 19 19 19 19 19 19 19 19 19 19 19 18 18 18 18 17 17 17 17 17 17 17 17
18 13 15 17 19 20 21 22 23 24 23 24 24 23 23 22 21 21 20 20 20 20 19 19 20 19 19 19 19 19 19 19 19 19 19 19 18 18 18 18 17 17 17 17 17 17 17 17 17
16 15 16 18 20 21 21 22 23 23 22 24 24 23 22 21 21 21 21 21 21 20 20 20 20 20 19 19 19 19 19 19 19 19 19 18 18 18 18 18 17 17 17 17 17 17 17 17 17
15 16 17 19 21 21 21 22 23 23 24 26 25 24 23 21 20 21 21 21 21 21 20 20 20 20 20 20 20 19 19 19 19 19 19 18 18 18 18 18 17 17 17 17 17 17 17 17 17
16 17 19 20 21 21 21 21 22 23 25 25 25 23 23 22 21 21 21 21 21 21 21 21 20 20 20 20 20 19 19 19 19 19 19 18 18 18 18 17 17 17 17 17 17 17 17 17 17
17 18 19 20 20 21 21 21 21 24 26 25 24 22 22 21 21 20 21 21 21 21 21 21 21 20 20 20 20 20 19 19 19 19 19 18 18 18 18 17 17 17 17 17 17 17 17 17 17
18 18 18 18 19 20 20 21 21 25 24 24 23 22 21 21 20 21 21 21 22 22 22 21 21 21 20 20 20 20 19 19 19 19 18 18 18 18 18 17 17 17 17 17 17 17 17 17 17
17 18 18 19 19 20 20 21 22 24 23 23 22 22 21 21 21 22 22 22 22 22 22 22 21 21 21 20 20 20 19 19 19 19 18 18 18 18 17 17 17 17 16 16 16 16 16 17 16
16 17 18 19 20 20 20 21 21 23 23 22 22 22 22 22 22 22 22 22 22 22 22 22 22 22 21 21 20 20 19 19 19 18 18 18 18 18 17 17 17 16 16 16 16 16 16 16 16
17 18 18 19 19 20 20 20 20 22 22 22 22 22 22 22 22 22 22 22 22 22 22 22 22 22 21 21 20 19 19 19 18 18 18 18 18 17 17 17 16 16 16 16 16 16 15 15 15
18 18 18 18 19 20 19 19 18 19 20 20 21 21 22 22 23 22 22 22 22 22 22 22 22 22 21 21 20 20 19 19 18 18 18 18 17 17 17 17 16 16 16 16 15 15 15 15 14
17 18 18 18 19 20 19 18 17 17 17 18 19 20 21 21 21 22 22 22 22 22 22 22 22 21 21 21 20 20 19 19 18 18 18 18 17 17 17 17 16 16 16 15 15 15 14 14 14
17 17 18 19 18 19 19 18 17 17 16 16 17 18 19 19 20 20 21 21 22 21 21 22 21 21 21 21 20 19 19 18 18 18 17 17 17 17 17 16 16 16 15 15 15 14 14 14 13
16 18 18 19 18 17 19 17 17 16 16 16 15 15 16 17 17 18 19 19 20 20 21 21 21 21 20 20 20 20 19 19 18 18 17 16 16 16 16 16 15 15 14 14 14 14 13 13 13
17 18 18 18 18 17 17 17 16 16 16 16 15 15 15 15 16 16 17 17 18 19 19 20 20 19 19 19 19 19 19 18 18 17 16 16 15 15 15 15 14 14 14 14 13 13 13 13 12
18 18 17 15 15 17 17 16 16 16 16 16 15 14 14 14 15 15 16 17 17 18 18 19 19 18 18 18 18 18 18 18 17 16 16 15 14 14 14 14 13 13 13 13 13 12 12 12 12
17 16 15 16 15 16 16 16 16 16 15 15 14 13 14 14 14 15 15 16 16 17 17 17 17 17 17 17 17 17 17 17 16 16 15 14 14 13 13 13 13 12 12 12 12 11 11 11 11
16 16 15 16 16 15 16 16 15 15 14 14 13 13 13 13 14 14 14 14 15 15 16 16 16 16 16 16 16 16 16 15 15 15 14 13 13 13 12 12 12 11 11 11 11 10 10 10 10
16 15 15 14 16 15 15 16 15 15 14 13 13 12 12 13 13 13 13 14 14 14 15 15 15 15 15 15 15 15 14 14 14 13 13 13 12 12 11 11 11 10 10 9 9 9 9 9 8
16 14 13 14 15 15 15 15 15 15 14 13 12 12 12 12 12 13 13 13 13 13 14 14 14 14 14 14 14 14 13 13 13 13 12 12 11 10 10 9 9 9 8 8 8 8 8 7 7
16 15 13 12 13 14 14 14 15 14 14 13 12 11 11 11 11 12 12 12 12 13 13 13 13 13 13 13 12 12 12 12 12 11 10 10 9 9 8 8 8 8 7 7 7 7 6 6 6
15 14 13 14 13 13 13 14 13 13 13 12 11 11 11 11 11 11 11 11 11 11 12 12 12 11 11 11 11 11 11 10 10 9 9 8 8 8 7 7 7 7 6 6 6 6 6 5 5